DW2659 Weather Reports


time (UTC)temp
C
wind
direction
speed
KPH
gust
KPH
rain 1hr
cm
rain 24hr
cm
rain mn
cm
humidity
%
barometer
mb
20260905195403 35 71 0.0 1.6 0.00 0.00 0.00 55 1011.5
20260905194904 35 71 0.0 0.0 0.00 0.00 0.00 54 1011.5
20260905193905 36 71 0.0 0.0 0.00 0.00 0.00 54 1011.8
20260905193403 36 71 0.0 0.0 0.00 0.00 0.00 54 1011.8
20260905191904 37 71 0.0 0.0 0.00 0.00 0.00 50 1012.1
20260905191404 37 71 0.0 1.6 0.00 0.00 0.00 49 1012.1
20260905190905 37 71 0.0 1.6 0.00 0.00 0.00 48 1012.1
20260905190404 37 62 1.6 3.2 0.00 0.00 0.00 47 1012.1
20260905185904 37 5 1.6 8.0 0.00 0.00 0.00 46 1012.1
20260905185405 37 23 3.2 4.8 0.00 0.00 0.00 48 1012.1
20260905184904 37 23 4.8 4.8 0.00 0.00 0.00 45 1012.1
20260905184404 37 295 3.2 4.8 0.00 0.00 0.00 45 1012.1
20260905183905 37 358 3.2 8.0 0.00 0.00 0.00 46 1012.1
20260905183403 37 62 3.2 8.0 0.00 0.00 0.00 45 1012.2
20260905182904 36 71 3.2 4.8 0.00 0.00 0.00 45 1012.4
20260905182405 36 93 3.2 8.0 0.00 0.00 0.00 46 1012.4
20260905181402 36 231 1.6 4.8 0.00 0.00 0.00 45 1012.5
20260905180904 36 32 3.2 4.8 0.00 0.00 0.00 47 1012.8
20260905180402 36 242 1.6 4.8 0.00 0.00 0.00 46 1012.8
20260905174902 36 83 3.2 4.8 0.00 0.00 0.00 45 1013.2
20260905174402 36 11 3.2 8.0 0.00 0.00 0.00 49 1013.2
20260905173904 36 68 1.6 4.8 0.00 0.00 0.00 47 1013.2
20260905173402 36 70 3.2 8.0 0.00 0.00 0.00 48 1013.2
20260905172902 36 105 1.6 4.8 0.00 0.00 0.00 47 1013.2
20260905172404 36 276 3.2 4.8 0.00 0.00 0.00 48 1013.2
20260905171902 36 216 1.6 3.2 0.00 0.00 0.00 50 1013.2
20260905171402 36 90 1.6 4.8 0.00 0.00 0.00 49 1013.4
20260905170903 36 0 1.6 4.8 0.00 0.00 0.00 52 1013.4
20260905170403 36 248 4.8 4.8 0.00 0.00 0.00 51 1013.4
20260905165402 35 353 3.2 4.8 0.00 0.00 0.00 51 1013.6
20260905164403 35 139 6.4 11.3 0.00 0.00 0.00 53 1013.9
20260905163902 35 57 1.6 4.8 0.00 0.00 0.00 53 1013.9
20260905163404 35 354 1.6 4.8 0.00 0.00 0.00 55 1013.9
20260905162402 35 80 1.6 3.2 0.00 0.00 0.00 55 1014.0
20260905161402 34 199 3.2 4.8 0.00 0.00 0.00 56 1014.1
20260905160903 34 345 1.6 3.2 0.00 0.00 0.00 57 1014.1
20260905160404 34 106 1.6 4.8 0.00 0.00 0.00 57 1014.1
20260905155902 34 50 1.6 4.8 0.00 0.00 0.00 59 1014.2
20260905155403 33 33 1.6 4.8 0.00 0.00 0.00 60 1014.2
20260905154903 33 114 1.6 3.2 0.00 0.00 0.00 59 1014.4
20260905154403 33 59 3.2 4.8 0.00 0.00 0.00 59 1014.4
20260905153902 33 38 1.6 4.8 0.00 0.00 0.00 62 1014.4
20260905152902 32 98 1.6 3.2 0.00 0.00 0.00 62 1014.4
20260905152403 32 118 3.2 4.8 0.00 0.00 0.00 61 1014.4
20260905151903 32 48 3.2 8.0 0.00 0.00 0.00 61 1014.4
20260905151403 32 119 3.2 4.8 0.00 0.00 0.00 62 1014.6
20260905150902 32 90 4.8 8.0 0.00 0.00 0.00 61 1014.6
20260905145902 31 99 3.2 8.0 0.00 0.00 0.00 63 1014.9
20260905144904 32 176 3.2 4.8 0.00 0.00 0.00 61 1014.9
20260905144403 31 120 1.6 4.8 0.00 0.00 0.00 65 1014.9
20260905143902 31 68 1.6 4.8 0.00 0.00 0.00 65 1014.9
20260905142903 31 153 3.2 8.0 0.00 0.00 0.00 67 1014.9
20260905142402 31 5 1.6 3.2 0.00 0.00 0.00 67 1014.9
20260905141904 30 25 1.6 3.2 0.00 0.00 0.00 69 1014.9
20260905141402 30 75 0.0 4.8 0.00 0.00 0.00 70 1014.8
20260905140403 29 69 3.2 8.0 0.00 0.00 0.00 71 1014.8
20260905135903 29 105 3.2 4.8 0.00 0.00 0.00 70 1014.9
20260905135403 29 99 3.2 8.0 0.00 0.00 0.00 71 1014.9
20260905134904 29 106 4.8 8.0 0.00 0.00 0.00 71 1014.9
20260905134403 29 157 1.6 4.8 0.00 0.00 0.00 73 1015.4
20260905133903 28 76 0.0 1.6 0.00 0.00 0.00 76 1015.4
20260905133403 28 76 1.6 3.2 0.00 0.00 0.00 75 1015.4
20260905131903 26 76 0.0 1.6 0.00 0.00 0.00 82 1015.4
20260905130902 25 76 0.0 0.0 0.00 0.00 0.00 86 1015.3
20260905130404 25 76 0.0 3.2 0.00 0.00 0.00 87 1015.3
20260905125903 24 76 0.0 1.6 0.00 0.00 0.00 90 1015.3
20260905124904 23 76 0.0 1.6 0.00 0.00 0.00 93 1015.2
20260905124403 23 76 1.6 3.2 0.00 0.00 0.00 93 1015.2
20260905123902 23 76 0.0 1.6 0.00 0.00 0.00 93 1015.0
20260905123404 22 76 0.0 1.6 0.00 0.00 0.00 93 1015.0
20260905122903 22 76 1.6 3.2 0.00 0.00 0.00 93 1015.0
20260905122403 22 76 0.0 0.0 0.00 0.00 0.00 93 1015.0
20260905121904 22 76 0.0 0.0 0.00 0.00 0.00 93 1015.0
20260905115402 22 76 0.0 0.0 0.00 0.00 0.00 93 1014.3
20260905114904 22 76 0.0 1.6 0.00 0.00 0.00 93 1014.3
20260905114403 22 76 0.0 1.6 0.00 0.00 0.00 93 1014.3
20260905113404 22 76 0.0 1.6 0.00 0.00 0.00 93 1014.3
20260905112902 22 76 0.0 0.0 0.00 0.00 0.00 92 1014.3
20260905111904 22 76 1.6 1.6 0.00 0.00 0.00 92 1014.3
20260905111402 22 76 1.6 1.6 0.00 0.00 0.00 92 1014.0
20260905110903 22 76 0.0 0.0 0.00 0.00 0.00 92 1014.0
20260905110404 22 76 0.0 1.6 0.00 0.00 0.00 92 1014.0
20260905105903 22 76 1.6 3.2 0.00 0.00 0.00 92 1014.0
20260905105402 22 76 0.0 0.0 0.00 0.00 0.00 92 1014.0
20260905104904 22 76 0.0 0.0 0.00 0.00 0.00 92 1014.0
20260905104402 22 76 0.0 0.0 0.00 0.00 0.00 91 1013.8
20260905103903 22 76 0.0 0.0 0.00 0.00 0.00 91 1013.8
20260905103404 22 76 0.0 0.0 0.00 0.00 0.00 91 1013.8
20260905102902 22 76 0.0 0.0 0.00 0.00 0.00 91 1013.8
20260905102403 22 76 0.0 0.0 0.00 0.00 0.00 91 1013.8
20260905101403 22 76 0.0 0.0 0.00 0.00 0.00 91 1013.8
20260905095903 22 76 0.0 0.0 0.00 0.00 0.00 91 1013.6
20260905094902 22 76 0.0 0.0 0.00 0.00 0.00 91 1013.6
20260905094404 22 76 0.0 0.0 0.00 0.00 0.00 91 1013.6
20260905093402 22 76 0.0 0.0 0.00 0.00 0.00 91 1013.7
20260905092904 22 76 0.0 0.0 0.00 0.00 0.00 90 1013.5
20260905092403 22 76 0.0 0.0 0.00 0.00 0.00 91 1013.5
20260905091903 22 76 0.0 0.0 0.00 0.00 0.00 91 1013.5
20260905091404 22 76 0.0 0.0 0.00 0.00 0.00 90 1013.6
20260905085904 22 76 0.0 0.0 0.00 0.00 0.00 90 1013.6
20260905084404 23 76 0.0 0.0 0.00 0.00 0.00 90 1013.7
20260905083903 22 76 0.0 1.6 0.00 0.00 0.00 90 1013.7
20260905082904 23 76 0.0 0.0 0.00 0.00 0.00 90 1013.7
20260905082403 23 76 0.0 0.0 0.00 0.00 0.00 90 1013.7
20260905081903 23 76 0.0 1.6 0.00 0.00 0.00 90 1013.7
20260905081404 23 76 0.0 1.6 0.00 0.00 0.00 89 1013.6
20260905080903 23 76 1.6 1.6 0.00 0.00 0.00 90 1013.6
20260905080402 23 76 0.0 1.6 0.00 0.00 0.00 89 1013.3
20260905075903 23 76 0.0 1.6 0.00 0.00 0.00 90 1013.3
20260905074903 23 76 0.0 1.6 0.00 0.00 0.00 89 1013.3
20260905074403 23 76 1.6 1.6 0.00 0.00 0.00 89 1013.3
20260905073403 23 76 0.0 1.6 0.00 0.00 0.00 88 1013.3
20260905072903 23 76 0.0 1.6 0.00 0.00 0.00 88 1013.3
20260905072404 23 76 0.0 1.6 0.00 0.00 0.00 88 1013.3
20260905071903 23 76 0.0 0.0 0.00 0.00 0.00 87 1013.3
20260905070904 23 76 1.6 1.6 0.00 0.00 0.00 87 1013.5
20260905065903 23 76 0.0 1.6 0.00 0.00 0.00 87 1013.6
20260905065404 23 76 1.6 3.2 0.00 0.00 0.00 87 1013.5
20260905064903 23 76 0.0 1.6 0.00 0.00 0.00 87 1013.8
20260905064403 23 76 0.0 1.6 0.00 0.00 0.00 87 1013.8
20260905063904 23 76 0.0 1.6 0.00 0.00 0.00 86 1013.8
20260905063403 23 76 1.6 1.6 0.00 0.00 0.00 86 1013.8
20260905062902 23 76 0.0 1.6 0.00 0.00 0.00 87 1013.7
20260905062405 23 76 0.0 1.6 0.00 0.00 0.00 87 1013.7
20260905061903 23 76 0.0 1.6 0.00 0.00 0.00 87 1013.7
20260905061403 23 76 0.0 0.0 0.00 0.00 0.00 86 1013.7
20260905060904 23 76 0.0 0.0 0.00 0.00 0.00 86 1013.8
20260905055903 23 76 0.0 1.6 0.00 0.00 0.00 86 1013.7
20260905054903 23 76 0.0 1.6 0.00 0.00 0.00 86 1013.7
20260905054404 23 76 0.0 1.6 0.00 0.00 0.00 86 1013.7
20260905053904 24 76 0.0 0.0 0.00 0.00 0.00 85 1013.8
20260905053403 24 76 0.0 1.6 0.00 0.00 0.00 85 1013.8
20260905052903 24 76 0.0 1.6 0.00 0.00 0.00 85 1013.7
20260905052404 24 76 0.0 0.0 0.00 0.00 0.00 85 1013.7
20260905051403 24 76 0.0 0.0 0.00 0.00 0.00 85 1014.1
20260905050905 24 76 0.0 0.0 0.00 0.00 0.00 85 1014.1
20260905050403 24 76 0.0 0.0 0.00 0.00 0.00 85 1014.1
20260905045903 24 76 0.0 0.0 0.00 0.00 0.00 85 1014.4
20260905045405 24 76 0.0 0.0 0.00 0.00 0.00 84 1014.4
20260905044403 24 76 0.0 0.0 0.00 0.00 0.00 84 1014.4
20260905043905 24 76 0.0 0.0 0.00 0.00 0.00 84 1014.4
20260905043403 24 76 0.0 0.0 0.00 0.00 0.00 84 1014.4
20260905042404 24 76 0.0 0.0 0.00 0.00 0.00 83 1014.4
20260905041403 24 76 0.0 1.6 0.00 0.00 0.00 83 1014.4
20260905040904 25 76 0.0 1.6 0.00 0.00 0.00 82 1014.4
20260905040403 25 76 1.6 3.2 0.00 0.00 0.00 82 1014.4
20260905035903 25 76 0.0 1.6 0.00 0.00 0.00 82 1014.7
20260905034904 25 76 0.0 3.2 0.00 0.00 0.00 81 1014.7
20260905033903 25 76 0.0 1.6 0.00 0.00 0.00 81 1014.7
20260905033404 25 76 0.0 0.0 0.00 0.00 0.00 80 1014.7
20260905032904 25 76 0.0 0.0 0.00 0.00 0.00 80 1014.7
20260905032403 25 76 0.0 0.0 0.00 0.00 0.00 80 1014.7
20260905031904 25 76 0.0 0.0 0.00 0.00 0.00 79 1014.7
20260905030904 25 76 0.0 0.0 0.00 0.00 0.00 79 1015.0
20260905030404 25 76 0.0 0.0 0.00 0.00 0.00 79 1015.0
20260905025903 25 76 0.0 0.0 0.00 0.00 0.00 78 1015.0
20260905025403 25 76 0.0 0.0 0.00 0.00 0.00 79 1015.0
20260905024904 25 76 0.0 0.0 0.00 0.00 0.00 78 1015.0
20260905023903 26 76 1.6 1.6 0.00 0.00 0.00 77 1014.8
20260905023404 26 76 1.6 3.2 0.00 0.00 0.00 76 1014.8
20260905022903 26 76 1.6 3.2 0.00 0.00 0.00 76 1014.8
20260905022403 26 76 0.0 0.0 0.00 0.00 0.00 74 1014.8
20260905021903 26 76 0.0 0.0 0.00 0.00 0.00 75 1014.8
20260905021405 26 76 0.0 1.6 0.00 0.00 0.00 75 1014.7
20260905020904 26 76 0.0 1.6 0.00 0.00 0.00 75 1014.7
20260905020403 26 76 1.6 1.6 0.00 0.00 0.00 74 1014.7
20260905015403 26 76 0.0 0.0 0.00 0.00 0.00 72 1014.7
20260905014903 27 76 0.0 0.0 0.00 0.00 0.00 72 1014.7
20260905014404 27 76 0.0 0.0 0.00 0.00 0.00 71 1014.7
20260905013903 27 76 0.0 0.0 0.00 0.00 0.00 71 1014.7
20260905012905 27 76 0.0 0.0 0.00 0.00 0.00 70 1014.6
20260905012403 27 76 0.0 0.0 0.00 0.00 0.00 70 1014.6
20260905011903 27 76 0.0 0.0 0.00 0.00 0.00 70 1014.6
20260905010904 28 76 0.0 0.0 0.00 0.00 0.00 68 1014.5
20260905005403 28 76 0.0 1.6 0.00 0.00 0.00 67 1014.4
20260905004903 28 76 1.6 1.6 0.00 0.00 0.00 67 1014.4
20260905003904 29 76 0.0 0.0 0.00 0.00 0.00 65 1014.2
20260905003403 29 76 0.0 0.0 0.00 0.00 0.00 65 1014.2
20260905002904 29 76 0.0 0.0 0.00 0.00 0.00 64 1014.2
20260905001903 30 76 0.0 1.6 0.00 0.00 0.00 63 1014.2
20260905001404 30 76 1.6 4.8 0.00 0.00 0.00 62 1014.2
20260905000903 30 160 1.6 4.8 0.00 0.00 0.00 62 1014.2
20260904235904 30 219 0.0 3.2 0.00 0.00 0.00 60 1014.3
20260904235404 31 219 1.6 4.8 0.00 0.00 0.00 58 1014.3
20260904234903 31 219 1.6 3.2 0.00 0.00 0.00 60 1014.3
20260904234404 31 355 1.6 4.8 0.00 0.00 0.00 59 1014.1
20260904233904 32 336 1.6 4.8 0.00 0.00 0.00 57 1014.1
20260904233403 32 211 0.0 3.2 0.00 0.00 0.00 54 1014.1
20260904232904 32 98 0.0 8.0 0.00 0.00 0.00 53 1014.1
20260904232404 32 159 4.8 8.0 0.00 0.00 0.00 52 1014.1
20260904231405 32 105 0.0 4.8 0.00 0.00 0.00 60 1013.7
20260904230903 33 115 0.0 0.0 0.00 0.00 0.00 60 1013.4
20260904230404 33 115 0.0 0.0 0.00 0.00 0.00 57 1013.4
20260904225404 34 115 0.0 1.6 0.00 0.00 0.00 54 1013.4
20260904224405 35 115 0.0 1.6 0.00 0.00 0.00 52 1013.3
20260904223904 35 115 0.0 1.6 0.00 0.00 0.00 52 1013.3
20260904223403 36 115 0.0 1.6 0.00 0.00 0.00 52 1013.3
20260904222403 36 115 1.6 1.6 0.00 0.00 0.00 51 1013.3
20260904221903 37 115 0.0 1.6 0.00 0.00 0.00 47 1013.3
20260904221405 38 115 0.0 1.6 0.00 0.00 0.00 47 1013.2
20260904220904 38 115 0.0 1.6 0.00 0.00 0.00 46 1013.2
20260904220403 38 115 1.6 1.6 0.00 0.00 0.00 46 1013.2
20260904215905 38 115 0.0 1.6 0.00 0.00 0.00 44 1013.2
20260904215403 38 115 0.0 4.8 0.00 0.00 0.00 44 1013.2
20260904214404 38 281 0.0 1.6 0.00 0.00 0.00 46 1013.4
20260904213904 38 281 0.0 1.6 0.00 0.00 0.00 45 1013.4
20260904212905 38 281 1.6 3.2 0.00 0.00 0.00 46 1013.4
20260904212404 38 281 1.6 3.2 0.00 0.00 0.00 48 1013.7
20260904211904 38 281 0.0 3.2 0.00 0.00 0.00 47 1013.7
20260904211405 38 281 1.6 3.2 0.00 0.00 0.00 45 1013.8
20260904210904 38 281 1.6 3.2 0.00 0.00 0.00 42 1013.8
20260904210404 38 266 1.6 4.8 0.00 0.00 0.00 44 1013.8
20260904205904 38 136 1.6 1.6 0.00 0.00 0.00 45 1013.8
20260904205404 38 136 1.6 3.2 0.00 0.00 0.00 45 1013.8
20260904204404 38 136 0.0 3.2 0.00 0.00 0.00 46 1013.9
20260904203904 38 136 0.0 1.6 0.00 0.00 0.00 46 1013.9
20260904203403 38 136 1.6 3.2 0.00 0.00 0.00 46 1013.9
20260904202904 38 132 0.0 3.2 0.00 0.00 0.00 46 1014.6
20260904202404 38 22 1.6 3.2 0.00 0.00 0.00 46 1014.6
20260904201903 37 22 1.6 3.2 0.00 0.00 0.00 47 1014.6
20260904201405 37 22 1.6 4.8 0.00 0.00 0.00 48 1014.6
20260904200904 37 331 0.0 3.2 0.00 0.00 0.00 48 1014.6
20260904200404 37 319 1.6 3.2 0.00 0.00 0.00 47 1014.6